Year,Month,Day,Hour,Minute,Value (Times are PST for temperature in C)
2021,08,10,00,00,16.00
2021,08,10,00,01,16.00
2021,08,10,00,02,16.00
2021,08,10,00,03,15.90
2021,08,10,00,04,15.90
2021,08,10,00,05,15.90
2021,08,10,00,06,15.90
2021,08,10,00,07,15.90
2021,08,10,00,08,15.90
2021,08,10,00,09,15.80
2021,08,10,00,10,15.80
2021,08,10,00,11,15.80
2021,08,10,00,12,15.80
2021,08,10,00,13,15.80
2021,08,10,00,14,15.80
2021,08,10,00,15,15.80
2021,08,10,00,16,15.80
2021,08,10,00,17,15.80
2021,08,10,00,18,15.80
2021,08,10,00,19,15.70
2021,08,10,00,20,15.70
2021,08,10,00,21,15.70
2021,08,10,00,22,15.70
2021,08,10,00,23,15.70
2021,08,10,00,24,15.70
2021,08,10,00,25,15.70
2021,08,10,00,26,15.70
2021,08,10,00,27,15.70
2021,08,10,00,28,15.70
2021,08,10,00,29,15.60
2021,08,10,00,30,15.60
2021,08,10,00,31,15.60
2021,08,10,00,32,15.60
2021,08,10,00,33,15.60
2021,08,10,00,34,15.60
2021,08,10,00,35,15.60
2021,08,10,00,36,15.60
2021,08,10,00,37,15.60
2021,08,10,00,38,15.60
2021,08,10,00,39,15.60
2021,08,10,00,40,15.50
2021,08,10,00,41,15.50
2021,08,10,00,42,15.50
2021,08,10,00,43,15.50
2021,08,10,00,44,15.50
2021,08,10,00,45,15.50
2021,08,10,00,46,15.50
2021,08,10,00,47,15.50
2021,08,10,00,48,15.50
2021,08,10,00,49,15.50
2021,08,10,00,50,15.50
2021,08,10,00,51,15.50
2021,08,10,00,52,15.50
2021,08,10,00,53,15.50
2021,08,10,00,54,15.50
2021,08,10,00,55,15.50
2021,08,10,00,56,15.40
2021,08,10,00,57,15.40
2021,08,10,00,58,15.40
2021,08,10,00,59,15.40
2021,08,10,01,00,15.40
2021,08,10,01,01,15.40
2021,08,10,01,02,15.40
2021,08,10,01,03,15.40
2021,08,10,01,04,15.40
2021,08,10,01,05,15.40
2021,08,10,01,06,15.30
2021,08,10,01,07,15.30
2021,08,10,01,08,15.30
2021,08,10,01,09,15.30
2021,08,10,01,10,15.20
2021,08,10,01,11,15.20
2021,08,10,01,12,15.10
2021,08,10,01,13,15.10
2021,08,10,01,14,15.10
2021,08,10,01,15,15.00
2021,08,10,01,16,15.00
2021,08,10,01,17,15.00
2021,08,10,01,18,15.00
2021,08,10,01,19,15.00
2021,08,10,01,20,15.00
2021,08,10,01,21,15.00
2021,08,10,01,22,15.00
2021,08,10,01,23,15.00
2021,08,10,01,24,15.00
2021,08,10,01,25,15.00
2021,08,10,01,26,15.10
2021,08,10,01,27,15.10
2021,08,10,01,28,15.00
2021,08,10,01,29,15.00
2021,08,10,01,30,15.00
2021,08,10,01,31,15.00
2021,08,10,01,32,15.00
2021,08,10,01,33,14.90
2021,08,10,01,34,14.90
2021,08,10,01,35,14.90
2021,08,10,01,36,14.90
2021,08,10,01,37,14.80
2021,08,10,01,38,14.80
2021,08,10,01,39,14.80
2021,08,10,01,40,14.80
2021,08,10,01,41,14.80
2021,08,10,01,42,14.90
2021,08,10,01,43,14.90
2021,08,10,01,44,14.90
2021,08,10,01,45,15.00
2021,08,10,01,46,15.00
2021,08,10,01,47,15.10
2021,08,10,01,48,15.10
2021,08,10,01,49,15.10
2021,08,10,01,50,15.10
2021,08,10,01,51,15.10
2021,08,10,01,52,15.10
2021,08,10,01,53,15.10
2021,08,10,01,54,15.10
2021,08,10,01,55,15.10
2021,08,10,01,56,15.10
2021,08,10,01,57,15.10
2021,08,10,01,58,15.10
2021,08,10,01,59,15.10
2021,08,10,02,00,15.10
2021,08,10,02,01,15.10
2021,08,10,02,02,15.20
2021,08,10,02,03,15.20
2021,08,10,02,04,15.20
2021,08,10,02,05,15.20
2021,08,10,02,06,15.20
2021,08,10,02,07,15.20
2021,08,10,02,08,15.20
2021,08,10,02,09,15.20
2021,08,10,02,10,15.20
2021,08,10,02,11,15.20
2021,08,10,02,12,15.20
2021,08,10,02,13,15.10
2021,08,10,02,14,15.10
2021,08,10,02,15,15.00
2021,08,10,02,16,15.00
2021,08,10,02,17,14.90
2021,08,10,02,18,14.90
2021,08,10,02,19,14.90
2021,08,10,02,20,14.90
2021,08,10,02,21,14.90
2021,08,10,02,22,14.90
2021,08,10,02,23,14.90
2021,08,10,02,24,14.90
2021,08,10,02,25,14.90
2021,08,10,02,26,14.90
2021,08,10,02,27,14.90
2021,08,10,02,28,14.90
2021,08,10,02,29,14.80
2021,08,10,02,30,14.80
2021,08,10,02,31,14.80
2021,08,10,02,32,14.70
2021,08,10,02,33,14.70
2021,08,10,02,34,14.80
2021,08,10,02,35,14.80
2021,08,10,02,36,14.80
2021,08,10,02,37,14.80
2021,08,10,02,38,14.80
2021,08,10,02,39,14.80
2021,08,10,02,40,14.70
2021,08,10,02,41,14.70
2021,08,10,02,42,14.70
2021,08,10,02,43,14.70
2021,08,10,02,44,14.60
2021,08,10,02,45,14.60
2021,08,10,02,46,14.60
2021,08,10,02,47,14.50
2021,08,10,02,48,14.50
2021,08,10,02,49,14.40
2021,08,10,02,50,14.40
2021,08,10,02,51,14.30
2021,08,10,02,52,14.30
2021,08,10,02,53,14.30
2021,08,10,02,54,14.30
2021,08,10,02,55,14.30
2021,08,10,02,56,14.30
2021,08,10,02,57,14.30
2021,08,10,02,58,14.30
2021,08,10,02,59,14.30
2021,08,10,03,00,14.30
2021,08,10,03,01,14.30
2021,08,10,03,02,14.30
2021,08,10,03,03,14.30
2021,08,10,03,04,14.30
2021,08,10,03,05,14.30
2021,08,10,03,06,14.30
2021,08,10,03,07,14.30
2021,08,10,03,08,14.30
2021,08,10,03,09,14.30
2021,08,10,03,10,14.30
2021,08,10,03,11,14.30
2021,08,10,03,12,14.40
2021,08,10,03,13,14.40
2021,08,10,03,14,14.40
2021,08,10,03,15,14.40
2021,08,10,03,16,14.50
2021,08,10,03,17,14.60
2021,08,10,03,18,14.60
2021,08,10,03,19,14.60
2021,08,10,03,20,14.60
2021,08,10,03,21,14.60
2021,08,10,03,22,14.60
2021,08,10,03,23,14.50
2021,08,10,03,24,14.50
2021,08,10,03,25,14.50
2021,08,10,03,26,14.40
2021,08,10,03,27,14.40
2021,08,10,03,28,14.30
2021,08,10,03,29,14.30
2021,08,10,03,30,14.30
2021,08,10,03,31,14.30
2021,08,10,03,32,14.40
2021,08,10,03,33,14.40
2021,08,10,03,34,14.40
2021,08,10,03,35,14.30
2021,08,10,03,36,14.30
2021,08,10,03,37,14.30
2021,08,10,03,38,14.30
2021,08,10,03,39,14.30
2021,08,10,03,40,14.40
2021,08,10,03,41,14.40
2021,08,10,03,42,14.40
2021,08,10,03,43,14.50
2021,08,10,03,44,14.50
2021,08,10,03,45,14.60
2021,08,10,03,46,14.60
2021,08,10,03,47,14.60
2021,08,10,03,48,14.60
2021,08,10,03,49,14.60
2021,08,10,03,50,14.70
2021,08,10,03,51,14.70
2021,08,10,03,52,14.70
2021,08,10,03,53,14.70
2021,08,10,03,54,14.70
2021,08,10,03,55,14.70
2021,08,10,03,56,14.70
2021,08,10,03,57,14.70
2021,08,10,03,58,14.80
2021,08,10,03,59,14.80
2021,08,10,04,00,14.80
2021,08,10,04,01,14.80
2021,08,10,04,02,14.80
2021,08,10,04,03,14.70
2021,08,10,04,04,14.70
2021,08,10,04,05,14.60
2021,08,10,04,06,14.50
2021,08,10,04,07,14.50
2021,08,10,04,08,14.40
2021,08,10,04,09,14.40
2021,08,10,04,10,14.40
2021,08,10,04,11,14.40
2021,08,10,04,12,14.40
2021,08,10,04,13,14.30
2021,08,10,04,14,14.30
2021,08,10,04,15,14.30
2021,08,10,04,16,14.30
2021,08,10,04,17,14.20
2021,08,10,04,18,14.20
2021,08,10,04,19,14.20
2021,08,10,04,20,14.10
2021,08,10,04,21,14.20
2021,08,10,04,22,14.20
2021,08,10,04,23,14.20
2021,08,10,04,24,14.30
2021,08,10,04,25,14.30
2021,08,10,04,26,14.30
2021,08,10,04,27,14.30
2021,08,10,04,28,14.30
2021,08,10,04,29,14.30
2021,08,10,04,30,14.20
2021,08,10,04,31,14.20
2021,08,10,04,32,14.20
2021,08,10,04,33,14.20
2021,08,10,04,34,14.10
2021,08,10,04,35,14.10
2021,08,10,04,36,14.10
2021,08,10,04,37,14.20
2021,08,10,04,38,14.20
2021,08,10,04,39,14.20
2021,08,10,04,40,14.20
2021,08,10,04,41,14.20
2021,08,10,04,42,14.20
2021,08,10,04,43,14.20
2021,08,10,04,44,14.20
2021,08,10,04,45,14.20
2021,08,10,04,46,14.20
2021,08,10,04,47,14.20
2021,08,10,04,48,14.20
2021,08,10,04,49,14.20
2021,08,10,04,50,14.20
2021,08,10,04,51,14.20
2021,08,10,04,52,14.20
2021,08,10,04,53,14.20
2021,08,10,04,54,14.20
2021,08,10,04,55,14.10
2021,08,10,04,56,14.10
2021,08,10,04,57,14.10
2021,08,10,04,58,14.10
2021,08,10,04,59,14.10
2021,08,10,05,00,14.20
2021,08,10,05,01,14.20
2021,08,10,05,02,14.20
2021,08,10,05,03,14.20
2021,08,10,05,04,14.20
2021,08,10,05,05,14.20
2021,08,10,05,06,14.10
2021,08,10,05,07,14.10
2021,08,10,05,08,14.10
2021,08,10,05,09,14.10
2021,08,10,05,10,14.10
2021,08,10,05,11,14.10
2021,08,10,05,12,14.10
2021,08,10,05,13,14.10
2021,08,10,05,14,14.10
2021,08,10,05,15,14.10
2021,08,10,05,16,14.10
2021,08,10,05,17,14.10
2021,08,10,05,18,14.10
2021,08,10,05,19,14.10
2021,08,10,05,20,14.00
2021,08,10,05,21,14.00
2021,08,10,05,22,14.00
2021,08,10,05,23,13.90
2021,08,10,05,24,13.90
2021,08,10,05,25,13.90
2021,08,10,05,26,13.90
2021,08,10,05,27,13.80
2021,08,10,05,28,13.80
2021,08,10,05,29,13.80
2021,08,10,05,30,13.70
2021,08,10,05,31,13.70
2021,08,10,05,32,13.70
2021,08,10,05,33,13.60
2021,08,10,05,34,13.60
2021,08,10,05,35,13.60
2021,08,10,05,36,13.60
2021,08,10,05,37,13.60
2021,08,10,05,38,13.60
2021,08,10,05,39,13.60
2021,08,10,05,40,13.60
2021,08,10,05,41,13.60
2021,08,10,05,42,13.60
2021,08,10,05,43,13.60
2021,08,10,05,44,13.60
2021,08,10,05,45,13.60
2021,08,10,05,46,13.60
2021,08,10,05,47,13.60
2021,08,10,05,48,13.60
2021,08,10,05,49,13.50
2021,08,10,05,50,13.50
2021,08,10,05,51,13.50
2021,08,10,05,52,13.50
2021,08,10,05,53,13.50
2021,08,10,05,54,13.50
2021,08,10,05,55,13.50
2021,08,10,05,56,13.50
2021,08,10,05,57,13.40
2021,08,10,05,58,13.40
2021,08,10,05,59,13.40
2021,08,10,06,00,13.40
2021,08,10,06,01,13.40
2021,08,10,06,02,13.40
2021,08,10,06,03,13.40
2021,08,10,06,04,13.30
2021,08,10,06,05,13.30
2021,08,10,06,06,13.30
2021,08,10,06,07,13.40
2021,08,10,06,08,13.40
2021,08,10,06,09,13.40
2021,08,10,06,10,13.50
2021,08,10,06,11,13.50
2021,08,10,06,12,13.60
2021,08,10,06,13,13.60
2021,08,10,06,14,13.60
2021,08,10,06,15,13.70
2021,08,10,06,16,13.70
2021,08,10,06,17,13.80
2021,08,10,06,18,13.80
2021,08,10,06,19,13.90
2021,08,10,06,20,13.90
2021,08,10,06,21,14.00
2021,08,10,06,22,14.00
2021,08,10,06,23,14.00
2021,08,10,06,24,14.10
2021,08,10,06,25,14.10
2021,08,10,06,26,14.10
2021,08,10,06,27,14.10
2021,08,10,06,28,14.10
2021,08,10,06,29,14.20
2021,08,10,06,30,14.20
2021,08,10,06,31,14.30
2021,08,10,06,32,14.40
2021,08,10,06,33,14.40
2021,08,10,06,34,14.40
2021,08,10,06,35,14.40
2021,08,10,06,36,14.40
2021,08,10,06,37,14.50
2021,08,10,06,38,14.50
2021,08,10,06,39,14.50
2021,08,10,06,40,14.60
2021,08,10,06,41,14.60
2021,08,10,06,42,14.60
2021,08,10,06,43,14.60
2021,08,10,06,44,14.70
2021,08,10,06,45,14.70
2021,08,10,06,46,14.80
2021,08,10,06,47,14.90
2021,08,10,06,48,14.90
2021,08,10,06,49,14.90
2021,08,10,06,50,14.90
2021,08,10,06,51,15.00
2021,08,10,06,52,15.00
2021,08,10,06,53,15.00
2021,08,10,06,54,15.00
2021,08,10,06,55,14.90
2021,08,10,06,56,14.90
2021,08,10,06,57,15.00
2021,08,10,06,58,15.00
2021,08,10,06,59,15.10
2021,08,10,07,00,15.10
2021,08,10,07,01,15.10
2021,08,10,07,02,15.10
2021,08,10,07,03,15.20
2021,08,10,07,04,15.20
2021,08,10,07,05,15.20
2021,08,10,07,06,15.30
2021,08,10,07,07,15.30
2021,08,10,07,08,15.40
2021,08,10,07,09,15.40
2021,08,10,07,10,15.40
2021,08,10,07,11,15.50
2021,08,10,07,12,15.60
2021,08,10,07,13,15.60
2021,08,10,07,14,15.70
2021,08,10,07,15,15.80
2021,08,10,07,16,15.90
2021,08,10,07,17,15.90
2021,08,10,07,18,16.00
2021,08,10,07,19,16.10
2021,08,10,07,20,16.10
2021,08,10,07,21,16.20
2021,08,10,07,22,16.20
2021,08,10,07,23,16.20
2021,08,10,07,24,16.30
2021,08,10,07,25,16.30
2021,08,10,07,26,16.40
2021,08,10,07,27,16.40
2021,08,10,07,28,16.50
2021,08,10,07,29,16.50
2021,08,10,07,30,16.60
2021,08,10,07,31,16.60
2021,08,10,07,32,16.60
2021,08,10,07,33,16.70
2021,08,10,07,34,16.70
2021,08,10,07,35,16.70
2021,08,10,07,36,16.70
2021,08,10,07,37,16.70
2021,08,10,07,38,16.80
2021,08,10,07,39,16.80
2021,08,10,07,40,16.80
2021,08,10,07,41,16.80
2021,08,10,07,42,16.90
2021,08,10,07,43,16.90
2021,08,10,07,44,16.90
2021,08,10,07,45,17.00
2021,08,10,07,46,17.00
2021,08,10,07,47,17.10
2021,08,10,07,48,17.20
2021,08,10,07,49,17.30
2021,08,10,07,50,17.30
2021,08,10,07,51,17.40
2021,08,10,07,52,17.40
2021,08,10,07,53,17.40
2021,08,10,07,54,17.40
2021,08,10,07,55,17.40
2021,08,10,07,56,17.40
2021,08,10,07,57,17.40
2021,08,10,07,58,17.50
2021,08,10,07,59,17.60
2021,08,10,08,00,17.60
2021,08,10,08,01,17.70
2021,08,10,08,02,17.70
2021,08,10,08,03,17.70
2021,08,10,08,04,17.70
2021,08,10,08,05,17.70
2021,08,10,08,06,17.70
2021,08,10,08,07,17.70
2021,08,10,08,08,17.70
2021,08,10,08,09,17.70
2021,08,10,08,10,17.70
2021,08,10,08,11,17.70
2021,08,10,08,12,17.80
2021,08,10,08,13,17.80
2021,08,10,08,14,17.80
2021,08,10,08,15,17.90
2021,08,10,08,16,17.90
2021,08,10,08,17,18.00
2021,08,10,08,18,18.10
2021,08,10,08,19,18.20
2021,08,10,08,20,18.20
2021,08,10,08,21,18.30
2021,08,10,08,22,18.30
2021,08,10,08,23,18.30
2021,08,10,08,24,18.30
2021,08,10,08,25,18.30
2021,08,10,08,26,18.20
2021,08,10,08,27,18.10
2021,08,10,08,28,18.10
2021,08,10,08,29,18.10
2021,08,10,08,30,18.10
2021,08,10,08,31,18.10
2021,08,10,08,32,18.10
2021,08,10,08,33,18.10
2021,08,10,08,34,18.10
2021,08,10,08,35,18.10
2021,08,10,08,36,18.10
2021,08,10,08,37,18.10
2021,08,10,08,38,18.20
2021,08,10,08,39,18.30
2021,08,10,08,40,18.30
2021,08,10,08,41,18.30
2021,08,10,08,42,18.30
2021,08,10,08,43,18.20
2021,08,10,08,44,18.20
2021,08,10,08,45,18.30
2021,08,10,08,46,18.30
2021,08,10,08,47,18.30
2021,08,10,08,48,18.30
2021,08,10,08,49,18.30
2021,08,10,08,50,18.30
2021,08,10,08,51,18.30
2021,08,10,08,52,18.30
2021,08,10,08,53,18.40
2021,08,10,08,54,18.40
2021,08,10,08,55,18.40
2021,08,10,08,56,18.40
2021,08,10,08,57,18.40
2021,08,10,08,58,18.40
2021,08,10,08,59,18.40
2021,08,10,09,00,18.40
2021,08,10,09,01,18.50
2021,08,10,09,02,18.50
2021,08,10,09,03,18.60
2021,08,10,09,04,18.60
2021,08,10,09,05,18.70
2021,08,10,09,06,18.70
2021,08,10,09,07,18.70
2021,08,10,09,08,18.70
2021,08,10,09,09,18.70
2021,08,10,09,10,18.80
2021,08,10,09,11,18.80
2021,08,10,09,12,18.90
2021,08,10,09,13,19.00
2021,08,10,09,14,19.00
2021,08,10,09,15,19.10
2021,08,10,09,16,19.10
2021,08,10,09,17,19.20
2021,08,10,09,18,19.20
2021,08,10,09,19,19.20
2021,08,10,09,20,19.20
2021,08,10,09,21,19.30
2021,08,10,09,22,19.30
2021,08,10,09,23,19.30
2021,08,10,09,24,19.30
2021,08,10,09,25,19.30
2021,08,10,09,26,19.40
2021,08,10,09,27,19.40
2021,08,10,09,28,19.50
2021,08,10,09,29,19.50
2021,08,10,09,30,19.50
2021,08,10,09,31,19.40
2021,08,10,09,32,19.30
2021,08,10,09,33,19.40
2021,08,10,09,34,19.40
2021,08,10,09,35,19.40
2021,08,10,09,36,19.40
2021,08,10,09,37,19.50
2021,08,10,09,38,19.50
2021,08,10,09,39,19.60
2021,08,10,09,40,19.60
2021,08,10,09,41,19.70
2021,08,10,09,42,19.80
2021,08,10,09,43,19.80
2021,08,10,09,44,19.80
2021,08,10,09,45,19.80
2021,08,10,09,46,19.80
2021,08,10,09,47,19.70
2021,08,10,09,48,19.70
2021,08,10,09,49,19.60
2021,08,10,09,50,19.60
2021,08,10,09,51,19.60
2021,08,10,09,52,19.60
2021,08,10,09,53,19.50
2021,08,10,09,54,19.50
2021,08,10,09,55,19.40
2021,08,10,09,56,19.40
2021,08,10,09,57,19.40
2021,08,10,09,58,19.50
2021,08,10,09,59,19.60
2021,08,10,10,00,19.80
2021,08,10,10,01,19.90
2021,08,10,10,02,20.00
2021,08,10,10,03,20.10
2021,08,10,10,04,20.10
2021,08,10,10,05,20.10
2021,08,10,10,06,20.10
2021,08,10,10,07,20.10
2021,08,10,10,08,20.10
2021,08,10,10,09,20.10
2021,08,10,10,10,20.10
2021,08,10,10,11,20.10
2021,08,10,10,12,20.00
2021,08,10,10,13,19.90
2021,08,10,10,14,19.90
2021,08,10,10,15,19.90
2021,08,10,10,16,19.90
2021,08,10,10,17,20.00
2021,08,10,10,18,20.10
2021,08,10,10,19,20.10
2021,08,10,10,20,20.20
2021,08,10,10,21,20.30
2021,08,10,10,22,20.30
2021,08,10,10,23,20.40
2021,08,10,10,24,20.50
2021,08,10,10,25,20.50
2021,08,10,10,26,20.50
2021,08,10,10,27,20.50
2021,08,10,10,28,20.40
2021,08,10,10,29,20.50
2021,08,10,10,30,20.50
2021,08,10,10,31,20.60
2021,08,10,10,32,20.70
2021,08,10,10,33,20.80
2021,08,10,10,34,20.80
2021,08,10,10,35,20.70
2021,08,10,10,36,20.70
2021,08,10,10,37,20.70
2021,08,10,10,38,20.70
2021,08,10,10,39,20.80
2021,08,10,10,40,20.80
2021,08,10,10,41,20.90
2021,08,10,10,42,21.00
2021,08,10,10,43,21.00
2021,08,10,10,44,21.10
2021,08,10,10,45,21.20
2021,08,10,10,46,21.30
2021,08,10,10,47,21.40
2021,08,10,10,48,21.40
2021,08,10,10,49,21.40
2021,08,10,10,50,21.40
2021,08,10,10,51,21.30
2021,08,10,10,52,21.30
2021,08,10,10,53,21.30
2021,08,10,10,54,21.30
2021,08,10,10,55,21.30
2021,08,10,10,56,21.30
2021,08,10,10,57,21.30
2021,08,10,10,58,21.40
2021,08,10,10,59,21.40
2021,08,10,11,00,21.40
2021,08,10,11,01,21.40
2021,08,10,11,02,21.40
2021,08,10,11,03,21.50
2021,08,10,11,04,21.50
2021,08,10,11,05,21.60
2021,08,10,11,06,21.60
2021,08,10,11,07,21.60
2021,08,10,11,08,21.60
2021,08,10,11,09,21.70
2021,08,10,11,10,21.70
2021,08,10,11,11,21.70
2021,08,10,11,12,21.70
2021,08,10,11,13,21.70
2021,08,10,11,14,21.70
2021,08,10,11,15,21.80
2021,08,10,11,16,21.80
2021,08,10,11,17,21.90
2021,08,10,11,18,22.00
2021,08,10,11,19,22.10
2021,08,10,11,20,22.10
2021,08,10,11,21,22.20
2021,08,10,11,22,22.10
2021,08,10,11,23,22.10
2021,08,10,11,24,22.10
2021,08,10,11,25,22.10
2021,08,10,11,26,22.10
2021,08,10,11,27,22.00
2021,08,10,11,28,22.00
2021,08,10,11,29,21.90
2021,08,10,11,30,21.80
2021,08,10,11,31,21.70
2021,08,10,11,32,21.60
2021,08,10,11,33,21.50
2021,08,10,11,34,21.60
2021,08,10,11,35,21.60
2021,08,10,11,36,21.60
2021,08,10,11,37,21.60
2021,08,10,11,38,21.70
2021,08,10,11,39,21.80
2021,08,10,11,40,21.80
2021,08,10,11,41,21.90
2021,08,10,11,42,21.90
2021,08,10,11,43,22.10
2021,08,10,11,44,22.20
2021,08,10,11,45,22.30
2021,08,10,11,46,22.50
2021,08,10,11,47,22.60
2021,08,10,11,48,22.70
2021,08,10,11,49,22.70
2021,08,10,11,50,22.80
2021,08,10,11,51,22.80
2021,08,10,11,52,22.80
2021,08,10,11,53,22.70
2021,08,10,11,54,22.60
2021,08,10,11,55,22.50
2021,08,10,11,56,22.40
2021,08,10,11,57,22.40
2021,08,10,11,58,22.40
2021,08,10,11,59,22.40
2021,08,10,12,00,22.40
2021,08,10,12,01,22.40
2021,08,10,12,02,22.50
2021,08,10,12,03,22.50
2021,08,10,12,04,22.40
2021,08,10,12,05,22.40
2021,08,10,12,06,22.40
2021,08,10,12,07,22.40
2021,08,10,12,08,22.50
2021,08,10,12,09,22.50
2021,08,10,12,10,22.60
2021,08,10,12,11,22.70
2021,08,10,12,12,22.70
2021,08,10,12,13,22.70
2021,08,10,12,14,22.80
2021,08,10,12,15,22.80
2021,08,10,12,16,22.80
2021,08,10,12,17,22.80
2021,08,10,12,18,22.80
2021,08,10,12,19,22.70
2021,08,10,12,20,22.70
2021,08,10,12,21,22.70
2021,08,10,12,22,22.70
2021,08,10,12,23,22.80
2021,08,10,12,24,22.80
2021,08,10,12,25,22.70
2021,08,10,12,26,22.70
2021,08,10,12,27,22.70
2021,08,10,12,28,22.70
2021,08,10,12,29,22.70
2021,08,10,12,30,22.70
2021,08,10,12,31,22.70
2021,08,10,12,32,22.70
2021,08,10,12,33,22.60
2021,08,10,12,34,22.60
2021,08,10,12,35,22.60
2021,08,10,12,36,22.70
2021,08,10,12,37,22.70
2021,08,10,12,38,22.70
2021,08,10,12,39,22.70
2021,08,10,12,40,22.80
2021,08,10,12,41,22.90
2021,08,10,12,42,22.90
2021,08,10,12,43,22.90
2021,08,10,12,44,22.90
2021,08,10,12,45,22.90
2021,08,10,12,46,22.90
2021,08,10,12,47,22.80
2021,08,10,12,48,22.80
2021,08,10,12,49,22.80
2021,08,10,12,50,22.90
2021,08,10,12,51,22.90
2021,08,10,12,52,22.90
2021,08,10,12,53,22.90
2021,08,10,12,54,22.90
2021,08,10,12,55,22.90
2021,08,10,12,56,22.80
2021,08,10,12,57,22.80
2021,08,10,12,58,22.80
2021,08,10,12,59,22.80
2021,08,10,13,00,22.80
2021,08,10,13,01,22.80
2021,08,10,13,02,22.90
2021,08,10,13,03,22.90
2021,08,10,13,04,23.00
2021,08,10,13,05,23.00
2021,08,10,13,06,23.00
2021,08,10,13,07,23.00
2021,08,10,13,08,23.00
2021,08,10,13,09,23.00
2021,08,10,13,10,23.10
2021,08,10,13,11,23.10
2021,08,10,13,12,23.10
2021,08,10,13,13,23.20
2021,08,10,13,14,23.20
2021,08,10,13,15,23.30
2021,08,10,13,16,23.30
2021,08,10,13,17,23.30
2021,08,10,13,18,23.40
2021,08,10,13,19,23.40
2021,08,10,13,20,23.40
2021,08,10,13,21,23.50
2021,08,10,13,22,23.50
2021,08,10,13,23,23.60
2021,08,10,13,24,23.60
2021,08,10,13,25,23.60
2021,08,10,13,26,23.70
2021,08,10,13,27,23.80
2021,08,10,13,28,23.80
2021,08,10,13,29,23.90
2021,08,10,13,30,23.90
2021,08,10,13,31,23.90
2021,08,10,13,32,23.90
2021,08,10,13,33,24.00
2021,08,10,13,34,23.90
2021,08,10,13,35,23.90
2021,08,10,13,36,23.80
2021,08,10,13,37,23.80
2021,08,10,13,38,23.80
2021,08,10,13,39,23.80
2021,08,10,13,40,23.80
2021,08,10,13,41,23.90
2021,08,10,13,42,23.90
2021,08,10,13,43,23.90
2021,08,10,13,44,23.90
2021,08,10,13,45,23.90
2021,08,10,13,46,23.90
2021,08,10,13,47,23.90
2021,08,10,13,48,23.90
2021,08,10,13,49,23.90
2021,08,10,13,50,23.80
2021,08,10,13,51,23.80
2021,08,10,13,52,23.80
2021,08,10,13,53,23.80
2021,08,10,13,54,23.80
2021,08,10,13,55,23.70
2021,08,10,13,56,23.80
2021,08,10,13,57,23.80
2021,08,10,13,58,23.80
2021,08,10,13,59,23.90
2021,08,10,14,00,24.00
2021,08,10,14,01,24.10
2021,08,10,14,02,24.10
2021,08,10,14,03,24.10
2021,08,10,14,04,24.20
2021,08,10,14,05,24.20
2021,08,10,14,06,24.20
2021,08,10,14,07,24.20
2021,08,10,14,08,24.30
2021,08,10,14,09,24.30
2021,08,10,14,10,24.40
2021,08,10,14,11,24.40
2021,08,10,14,12,24.40
2021,08,10,14,13,24.40
2021,08,10,14,14,24.40
2021,08,10,14,15,24.40
2021,08,10,14,16,24.40
2021,08,10,14,17,24.50
2021,08,10,14,18,24.60
2021,08,10,14,19,24.70
2021,08,10,14,20,24.80
2021,08,10,14,21,24.90
2021,08,10,14,22,25.00
2021,08,10,14,23,25.00
2021,08,10,14,24,25.10
2021,08,10,14,25,25.00
2021,08,10,14,26,25.00
2021,08,10,14,27,24.90
2021,08,10,14,28,24.90
2021,08,10,14,29,24.90
2021,08,10,14,30,24.90
2021,08,10,14,31,24.90
2021,08,10,14,32,25.00
2021,08,10,14,33,24.90
2021,08,10,14,34,24.80
2021,08,10,14,35,24.80
2021,08,10,14,36,24.80
2021,08,10,14,37,24.80
2021,08,10,14,38,24.80
2021,08,10,14,39,24.80
2021,08,10,14,40,24.90
2021,08,10,14,41,25.00
2021,08,10,14,42,25.10
2021,08,10,14,43,25.20
2021,08,10,14,44,25.20
2021,08,10,14,45,25.30
2021,08,10,14,46,25.30
2021,08,10,14,47,25.30
2021,08,10,14,48,25.40
2021,08,10,14,49,25.40
2021,08,10,14,50,25.50
2021,08,10,14,51,25.60
2021,08,10,14,52,25.70
2021,08,10,14,53,25.70
2021,08,10,14,54,25.70
2021,08,10,14,55,25.80
2021,08,10,14,56,25.90
2021,08,10,14,57,25.90
2021,08,10,14,58,25.90
2021,08,10,14,59,25.80
2021,08,10,15,00,25.70
2021,08,10,15,01,25.70
2021,08,10,15,02,25.70
2021,08,10,15,03,25.70
2021,08,10,15,04,25.70
2021,08,10,15,05,25.70
2021,08,10,15,06,25.70
2021,08,10,15,07,25.70
2021,08,10,15,08,25.70
2021,08,10,15,09,25.80
2021,08,10,15,10,25.80
2021,08,10,15,11,25.80
2021,08,10,15,12,25.90
2021,08,10,15,13,25.90
2021,08,10,15,14,25.90
2021,08,10,15,15,26.00
2021,08,10,15,16,26.10
2021,08,10,15,17,26.00
2021,08,10,15,18,26.00
2021,08,10,15,19,25.90
2021,08,10,15,20,25.80
2021,08,10,15,21,25.80
2021,08,10,15,22,25.80
2021,08,10,15,23,25.80
2021,08,10,15,24,25.80
2021,08,10,15,25,25.90
2021,08,10,15,26,25.90
2021,08,10,15,27,25.90
2021,08,10,15,28,25.90
2021,08,10,15,29,26.00
2021,08,10,15,30,26.00
2021,08,10,15,31,26.10
2021,08,10,15,32,26.10
2021,08,10,15,33,26.10
2021,08,10,15,34,26.10
2021,08,10,15,35,26.10
2021,08,10,15,36,26.00
2021,08,10,15,37,26.00
2021,08,10,15,38,26.00
2021,08,10,15,39,26.00
2021,08,10,15,40,26.10
2021,08,10,15,41,26.10
2021,08,10,15,42,26.10
2021,08,10,15,43,26.20
2021,08,10,15,44,26.20
2021,08,10,15,45,26.30
2021,08,10,15,46,26.30
2021,08,10,15,47,26.40
2021,08,10,15,48,26.40
2021,08,10,15,49,26.40
2021,08,10,15,50,26.40
2021,08,10,15,51,26.40
2021,08,10,15,52,26.30
2021,08,10,15,53,26.30
2021,08,10,15,54,26.30
2021,08,10,15,55,26.30
2021,08,10,15,56,26.30
2021,08,10,15,57,26.30
2021,08,10,15,58,26.40
2021,08,10,15,59,26.40
2021,08,10,16,00,26.40
2021,08,10,16,01,26.40
2021,08,10,16,02,26.50
2021,08,10,16,03,26.40
2021,08,10,16,04,26.40
2021,08,10,16,05,26.30
2021,08,10,16,06,26.30
2021,08,10,16,07,26.20
2021,08,10,16,08,26.20
2021,08,10,16,09,26.20
2021,08,10,16,10,26.10
2021,08,10,16,11,26.20
2021,08,10,16,12,26.20
2021,08,10,16,13,26.20
2021,08,10,16,14,26.20
2021,08,10,16,15,26.30
2021,08,10,16,16,26.30
2021,08,10,16,17,26.30
2021,08,10,16,18,26.30
2021,08,10,16,19,26.30
2021,08,10,16,20,26.20
2021,08,10,16,21,26.30
2021,08,10,16,22,26.30
2021,08,10,16,23,26.30
2021,08,10,16,24,26.40
2021,08,10,16,25,26.50
2021,08,10,16,26,26.60
2021,08,10,16,27,26.60
2021,08,10,16,28,26.70
2021,08,10,16,29,26.70
2021,08,10,16,30,26.80
2021,08,10,16,31,26.80
2021,08,10,16,32,26.80
2021,08,10,16,33,26.80
2021,08,10,16,34,26.80
2021,08,10,16,35,26.80
2021,08,10,16,36,26.80
2021,08,10,16,37,26.80
2021,08,10,16,38,26.80
2021,08,10,16,39,26.90
2021,08,10,16,40,26.90
2021,08,10,16,41,27.00
2021,08,10,16,42,27.00
2021,08,10,16,43,27.00
2021,08,10,16,44,27.00
2021,08,10,16,45,27.00
2021,08,10,16,46,27.00
2021,08,10,16,47,27.10
2021,08,10,16,48,27.10
2021,08,10,16,49,27.10
2021,08,10,16,50,27.20
2021,08,10,16,51,27.20
2021,08,10,16,52,27.10
2021,08,10,16,53,27.10
2021,08,10,16,54,27.10
2021,08,10,16,55,27.10
2021,08,10,16,56,27.10
2021,08,10,16,57,27.00
2021,08,10,16,58,27.00
2021,08,10,16,59,27.00
2021,08,10,17,00,27.00
2021,08,10,17,01,27.10
2021,08,10,17,02,27.00
2021,08,10,17,03,27.00
2021,08,10,17,04,27.00
2021,08,10,17,05,26.90
2021,08,10,17,06,26.90
2021,08,10,17,07,26.90
2021,08,10,17,08,27.00
2021,08,10,17,09,27.00
2021,08,10,17,10,27.00
2021,08,10,17,11,27.00
2021,08,10,17,12,27.00
2021,08,10,17,13,27.10
2021,08,10,17,14,27.10
2021,08,10,17,15,27.10
2021,08,10,17,16,27.20
2021,08,10,17,17,27.20
2021,08,10,17,18,27.30
2021,08,10,17,19,27.30